Home > Weather > Gmünd > Past weeks

Flag for Austria Past Weather in Gmünd, Lower Austria, Austria — Yesterday and Last 2 Weeks

Now
76 °F

Mild.


Feels Like: 78 °F
Forecast: 58 / 78 °F
Wind: 7 mph from West

Location: Retz

Current Time: Jun 30, 2016 at 4:07:43 PM

Latest Report: Jun 30, 2016 at 3:00 PM


Visibility: N/A

Pressure: 29.90 "Hg

Humidity: 68%

Dew Point: 65 °F

Location of GmündLocation

Past Weather in Gmünd — Graph

°F

Gmünd Temperature Yesterday

Maximum temperature yesterday: 83 °F (at 4:00 PM)
Minimum temperature yesterday: 60 °F (at 6:00 AM)
Average temperature yesterday: 72 °F

High & Low Weather Summary for the Past Weeks

 TemperatureHumidityPressure
High89 °F (Jun 25, 3:00 PM)98% (Jun 20, 11:00 PM)30.27 "Hg (Jun 20, 11:00 PM)
Low55 °F (Jun 16, 7:00 AM)36% (Jun 18, 3:00 PM)29.44 "Hg (Jun 17, 4:00 AM)
Average69 °F69%29.98 "Hg
* Reported Jun 15 2:00 PM — Jun 30 2:00 PM, Gmünd, Weather by CustomWeather, © 2016

Note: Actual official high and low records may vary slightly from our data, if they occured in-between our weather recording intervals... More about our weather records

Advertising

Gmünd Weather History for the Previous 24 Hours

Scroll right to see more
 ConditionsComfort  
Time TempWeatherWind HumidityBarometerVisibility
2:00 PM
Thu, Jun 30
83 °FWarm.2 mph50%29.89 "HgN/A
1:00 PM81 °FWarm.2 mph57%29.90 "HgN/A
12:00 PM79 °FWarm.2 mph63%29.91 "HgN/A
11:00 AM78 °FWarm.1 mph63%29.91 "HgN/A
10:00 AM73 °FMild.1 mph73%29.93 "HgN/A
9:00 AM72 °FMild.2 mph73%29.92 "HgN/A
8:00 AM71 °FPassing clouds.2 mph75%29.93 "Hg16 mi
7:00 AM69 °FPassing clouds.2 mph76%29.93 "Hg12 mi
6:00 AM65 °FMild.3 mph85%29.93 "HgN/A
5:00 AM69 °FMild.1 mph73%29.92 "HgN/A
4:00 AM68 °FMild.3 mph77%29.92 "HgN/A
3:00 AM69 °FMild.5 mph74%29.91 "HgN/A
2:00 AM71 °FSprinkles. Overcast.1 mph68%29.93 "HgN/A
1:00 AM72 °FMild.5 mph70%29.94 "HgN/A
12:00 AM75 °FMild.1 mph59%29.92 "HgN/A
11:00 PM
Wed, Jun 29
76 °FMild.No wind57%29.92 "HgN/A
10:00 PM76 °FMild.No wind57%29.92 "HgN/A
9:00 PM77 °FWarm.1 mph54%29.90 "HgN/A
7:00 PM82 °FWarm.1 mph41%29.88 "HgN/A
6:00 PM82 °FWarm.2 mph46%29.89 "HgN/A
5:00 PM81 °FWarm.3 mph55%29.90 "HgN/A
4:00 PM83 °FWarm.1 mph48%29.90 "HgN/A
Weather by CustomWeather, © 2016

See weather overviewHow to use our weather pages